Simultaneous Nadir Overpasses (SNOs) Predictions

Prediction of SNOs between METOP-A and NOAA-19 Satellite Orbit:

Table of predicted SNOs for the next 14.0 days since TLE Epoch: 3/16/2015
Index Date (METOP-A) Time (METOP-A) Lat,Lon (METOP-A) SZA (METOP-A ) Date (NOAA-19) Time (NOAA-19) Lat,Lon (NOAA-19) SZA (NOAA-19 ) Distance(km) Time Diff (sec)
1 03/24/2015 20:29:02 74.87,-130.46 73.30 03/24/2015 20:27:48 74.85,-130.87 73.30 12.15 74
2 03/24/2015 21:19:46 -74.78, 36.62 106.80 03/24/2015 21:18:50 -74.78, 36.56 106.79 1.67 56
3 03/24/2015 22:10:26 74.75,-156.12 73.16 03/24/2015 22:09:49 74.76,-156.12 73.18 0.94 37
4 03/24/2015 23:01:08 -74.76, 11.22 106.85 03/24/2015 23:00:52 -74.74, 11.17 106.87 2.54 16
5 03/24/2015 23:51:48 74.73, 178.48 73.11 03/24/2015 23:51:51 74.72, 178.48 73.10 1.24 3
6 03/25/2015 00:42:31 -74.69, -14.31 106.94 03/25/2015 00:42:54 -74.70, -14.22 106.94 2.64 23
7 03/25/2015 01:33:10 74.71, 153.09 73.07 03/25/2015 01:33:53 74.68, 153.09 73.03 3.42 43
8 03/25/2015 02:23:53 -74.67, -39.70 106.99 03/25/2015 02:24:56 -74.66, -39.62 107.01 2.72 63
9 03/25/2015 03:14:39 74.30, 126.66 72.66 03/25/2015 03:15:48 74.35, 128.48 72.66 55.02 69




NCC Satellite Simultaneous Nadir Overpasses (SNOs) Prediction Service
